Нижнеколымск

Россия / Республика Саха (Якутия)     68°31′54″N   160°55′35″E
темп.,
°C
ветер,
м/с
пор.,
м/с
влажн.,
%
обл.,
%
осадки,
мм/ч
давл.,
гПа
погр.,
м
27 февраля, сб
сб2723:00−33ююв229892 0.0 103419
02:00−33ююв229897 0.0 103319
05:00−33ююв229891 0.0 103219
08:00−34юв129748 0.0 103319
11:00−32ююв129342 0.0 103333
14:00−30ю119587 0.0 103251
17:00−33всв019959 0.0 103219
20:00−33в11991 0.0 103219
28 февраля, вс
вс2823:00−34ю111000 0.0 103219
02:00−34юв129814 0.0 103219
05:00−34юв229818 0.0 103119
08:00−34юв229616 0.0 103219
11:00−31юв229218 0.0 103138
14:00−29в12920 0.0 103056
17:00−31св22940 0.0 102919
20:00−32ссв22950 0.0 102919
1 марта, пн
пн123:00−32ссв12960 0.0 102719
02:00−32св11950 0.0 102519
05:00−32ссв11910 0.0 102419
08:00−32ссз12910 0.0 102219
11:00−29ссз11870 0.0 102125
14:00−28сз12870 0.0 102034
17:00−30сз23890 0.0 101919
20:00−31сз23910 0.0 102019
2 марта, вт
вт223:00−33зсз33940 0.0 102019
02:00−34зсз34970 0.0 102022
05:00−35зсз34973 0.0 102127
08:00−36зсз349632 0.0 102331
11:00−34з359435 0.0 1024139
14:00−33зсз239341 0.0 1025183
17:00−35зсз229725 0.0 102619
20:00−37з22971 0.0 102819
3 марта, ср
ср323:00−38з11971 0.0 102919
02:00−38зюз11971 0.0 103019
05:00−38ссв00971 0.0 103119
08:00−38вюв11961 0.0 103118
11:00−35вюв22901 0.0 102988
14:00−32в12890 0.0 1028106
17:00−34ссв33910 0.0 102520
20:00−34св229348 0.0 102219